owner,sensor,date,latitude,longitude,vertical_datum,wind_speed,wind_to_direction,wind_speed_of_gust,qcFlag 
TABS,ioos:station:wmo:42043:1,2013-10-01T00:00:00Z,28.9818,-94.9186,4.0,4.570831434,162.9528172,5.69,'11111222,11111222,11111222' 
TABS,ioos:station:wmo:42043:1,2013-10-01T00:30:00Z,28.9818,-94.9186,4.0,4.418517851,157.0911297,5.34,'11111222,11111222,11111222' 
TABS,ioos:station:wmo:42043:1,2013-10-01T01:00:00Z,28.9818,-94.9186,4.0,4.416537105,163.2885794,5.45,'11111222,11111222,11111222' 
TABS,ioos:station:wmo:42043:1,2013-10-01T01:30:00Z,28.9818,-94.9186,4.0,4.465422712,177.1762568,6.02,'11111222,11111222,11111222' 
TABS,ioos:station:wmo:42043:1,2013-10-01T02:00:00Z,28.9818,-94.9186,4.0,5.500736314,179.062729,7.13,'11111222,11111222,11111222' 
TABS,ioos:station:wmo:42043:1,2013-10-01T02:30:00Z,28.9818,-94.9186,4.0,5.74655549,187.2983456,7.21,'11111222,11111222,11111222' 
TABS,ioos:station:wmo:42043:1,2013-10-01T03:00:00Z,28.9818,-94.9186,4.0,5.441112019,181.1586043,6.69,'11111222,11111222,11111222' 
TABS,ioos:station:wmo:42043:1,2013-10-01T03:30:00Z,28.9818,-94.9186,4.0,4.962579974,181.8478164,6.03,'11111222,11111222,11111222' 
TABS,ioos:station:wmo:42043:1,2013-10-01T04:00:00Z,28.9818,-94.9186,4.0,4.849917525,176.3354539,6.07,'11111222,11111222,11111222' 
TABS,ioos:station:wmo:42043:1,2013-10-01T04:30:00Z,28.9818,-94.9186,4.0,4.715018558,172.0763493,5.91,'11111222,11111222,11111222' 
TABS,ioos:station:wmo:42043:1,2013-10-01T05:00:00Z,28.9818,-94.9186,4.0,4.487538301,176.6787425,5.61,'11111222,11111222,11111222' 
TABS,ioos:station:wmo:42043:1,2013-10-01T05:30:00Z,28.9818,-94.9186,4.0,4.23505608,173.7646148,5.21,'11111222,11111222,11111222' 
TABS,ioos:station:wmo:42043:1,2013-10-01T06:00:00Z,28.9818,-94.9186,4.0,4.398408803,172.4228011,5.9,'11111222,11111222,11111222' 
TABS,ioos:station:wmo:42043:1,2013-10-01T06:30:00Z,28.9818,-94.9186,4.0,4.374768565,170.1288165,5.9,'11111222,11111222,11111222' 
TABS,ioos:station:wmo:42043:1,2013-10-01T07:00:00Z,28.9818,-94.9186,4.0,4.681292557,181.3466551,6.23,'11111222,11111222,11111222' 
TABS,ioos:station:wmo:42043:1,2013-10-01T07:30:00Z,28.9818,-94.9186,4.0,4.891829923,183.9856798,6.75,'11111222,11111222,11111222' 
TABS,ioos:station:wmo:42043:1,2013-10-01T08:00:00Z,28.9818,-94.9186,4.0,6.295371315,182.3672044,8.3,'11111222,11111222,11111222' 
TABS,ioos:station:wmo:42043:1,2013-10-01T08:30:00Z,28.9818,-94.9186,4.0,5.808218315,189.4138587,7.86,'11111222,11111222,11111222' 
TABS,ioos:station:wmo:42043:1,2013-10-01T09:00:00Z,28.9818,-94.9186,4.0,5.695691354,187.2624599,7.35,'11111222,11111222,11111222' 
TABS,ioos:station:wmo:42043:1,2013-10-01T09:30:00Z,28.9818,-94.9186,4.0,5.413353859,186.3637638,6.96,'11111222,11111222,11111222' 
TABS,ioos:station:wmo:42043:1,2013-10-01T10:00:00Z,28.9818,-94.9186,4.0,5.300339612,180.6488127,7.06,'11111222,11111222,11111222' 
TABS,ioos:station:wmo:42043:1,2013-10-01T10:30:00Z,28.9818,-94.9186,4.0,5.801879006,167.7606392,7.68,'11111222,11111222,11111222' 
TABS,ioos:station:wmo:42043:1,2013-10-01T11:00:00Z,28.9818,-94.9186,4.0,5.367252556,175.4050178,6.58,'11111222,11111222,11111222' 
TABS,ioos:station:wmo:42043:1,2013-10-01T11:30:00Z,28.9818,-94.9186,4.0,4.981766755,166.298732,6.92,'11111222,11111222,11111222' 
TABS,ioos:station:wmo:42043:1,2013-10-01T12:00:00Z,28.9818,-94.9186,4.0,5.199201862,163.6915554,6.47,'11111222,11111222,11111222' 
TABS,ioos:station:wmo:42043:1,2013-10-01T12:30:00Z,28.9818,-94.9186,4.0,6.756248959,149.9819132,8.39,'11111222,11111222,11111222' 
TABS,ioos:station:wmo:42043:1,2013-10-01T13:00:00Z,28.9818,-94.9186,4.0,6.173532214,154.8880604,7.41,'11111222,11111222,11111222' 
TABS,ioos:station:wmo:42043:1,2013-10-01T13:30:00Z,28.9818,-94.9186,4.0,5.831294882,161.8138743,7.16,'11111222,11111222,11111222' 
TABS,ioos:station:wmo:42043:1,2013-10-01T14:00:00Z,28.9818,-94.9186,4.0,7.73031694,179.4813766,10.03,'11111222,11111222,11111222' 
TABS,ioos:station:wmo:42043:1,2013-10-01T14:30:00Z,28.9818,-94.9186,4.0,5.708949115,168.7887166,7.27,'11111222,11111222,11111222' 
TABS,ioos:station:wmo:42043:1,2013-10-01T15:00:00Z,28.9818,-94.9186,4.0,6.677978736,164.9859273,8.55,'11111222,11111222,11111222' 
TABS,ioos:station:wmo:42043:1,2013-10-01T15:30:00Z,28.9818,-94.9186,4.0,8.181369079,159.8376536,10.19,'11111222,11111222,11111222' 
TABS,ioos:station:wmo:42043:1,2013-10-01T16:00:00Z,28.9818,-94.9186,4.0,6.039470175,159.0444827,7.52,'11111222,11111222,11111222' 
TABS,ioos:station:wmo:42043:1,2013-10-01T16:30:00Z,28.9818,-94.9186,4.0,4.73691883,175.1562214,6.71,'11111222,11111222,11111222' 
TABS,ioos:station:wmo:42043:1,2013-10-01T17:00:00Z,28.9818,-94.9186,4.0,3.530127476,157.8673185,5.27,'11111222,11111222,11111222' 
TABS,ioos:station:wmo:42043:1,2013-10-01T17:30:00Z,28.9818,-94.9186,4.0,6.25314321,121.5298144,8.72,'11111222,11111222,11111222' 
TABS,ioos:station:wmo:42043:1,2013-10-01T18:00:00Z,28.9818,-94.9186,4.0,5.225064593,154.8575094,6.38,'11111222,11111222,11111222' 
TABS,ioos:station:wmo:42043:1,2013-10-01T18:30:00Z,28.9818,-94.9186,4.0,2.997749156,193.8973543,6.01,'11111222,11111222,11111222' 
TABS,ioos:station:wmo:42043:1,2013-10-01T19:00:00Z,28.9818,-94.9186,4.0,6.032453895,184.9452556,11.41,'11111222,11111222,11111222' 
TABS,ioos:station:wmo:42043:1,2013-10-01T19:30:00Z,28.9818,-94.9186,4.0,8.277064697,223.2377183,11.02,'11111222,11111222,11111222' 
TABS,ioos:station:wmo:42043:1,2013-10-01T20:00:00Z,28.9818,-94.9186,4.0,5.056649088,220.5891202,6.78,'11111222,11111222,11111222' 
TABS,ioos:station:wmo:42043:1,2013-10-01T20:30:00Z,28.9818,-94.9186,4.0,3.520511326,217.8465576,4.57,'11111222,11111222,11111222' 
TABS,ioos:station:wmo:42043:1,2013-10-01T21:00:00Z,28.9818,-94.9186,4.0,1.464137972,175.6915556,2.36,'11111222,11111222,11111222' 
TABS,ioos:station:wmo:42043:1,2013-10-01T21:30:00Z,28.9818,-94.9186,4.0,1.949897433,145.6582368,2.73,'11111222,11111222,11111222' 
TABS,ioos:station:wmo:42043:1,2013-10-01T22:00:00Z,28.9818,-94.9186,4.0,3.060081698,173.432589,4.3,'11111222,11111222,11111222' 
TABS,ioos:station:wmo:42043:1,2013-10-01T22:30:00Z,28.9818,-94.9186,4.0,5.693057175,153.6152543,8.91,'11111222,11111222,11111222' 
TABS,ioos:station:wmo:42043:1,2013-10-01T23:00:00Z,28.9818,-94.9186,4.0,3.482326808,157.1905527,4.59,'11111222,11111222,11111222' 
TABS,ioos:station:wmo:42043:1,2013-10-01T23:30:00Z,28.9818,-94.9186,4.0,3.38245473,150.0242844,4.84,'11111222,11111222,11111222' 
TABS,ioos:station:wmo:42043:1,2013-10-02T00:00:00Z,28.9818,-94.9186,4.0,3.337933492,147.9767072,4.19,'11111222,11111222,11111222' 
TABS,ioos:station:wmo:42043:1,2013-10-02T00:30:00Z,28.9818,-94.9186,4.0,5.057370858,122.4020249,6.92,'11111222,11111222,11111222' 
TABS,ioos:station:wmo:42043:1,2013-10-02T01:00:00Z,28.9818,-94.9186,4.0,5.227504185,118.820751,6.2,'11111222,11111222,11111222' 
TABS,ioos:station:wmo:42043:1,2013-10-02T01:30:00Z,28.9818,-94.9186,4.0,5.806005512,126.9491791,7.02,'11111222,11111222,11111222' 
TABS,ioos:station:wmo:42043:1,2013-10-02T02:00:00Z,28.9818,-94.9186,4.0,6.12738933,122.8086088,7.46,'11111222,11111222,11111222' 
TABS,ioos:station:wmo:42043:1,2013-10-02T02:30:00Z,28.9818,-94.9186,4.0,5.652017339,126.7283114,6.99,'11111222,11111222,11111222' 
TABS,ioos:station:wmo:42043:1,2013-10-02T03:00:00Z,28.9818,-94.9186,4.0,6.508310073,131.823946,7.87,'11111222,11111222,11111222' 
TABS,ioos:station:wmo:42043:1,2013-10-02T03:30:00Z,28.9818,-94.9186,4.0,6.999957143,131.4095484,8.93,'11111222,11111222,11111222' 
TABS,ioos:station:wmo:42043:1,2013-10-02T04:00:00Z,28.9818,-94.9186,4.0,7.64385374,146.5804822,9.62,'11111222,11111222,11111222' 
TABS,ioos:station:wmo:42043:1,2013-10-02T04:30:00Z,28.9818,-94.9186,4.0,6.646389998,143.7510919,8.39,'11111222,11111222,11111222' 
TABS,ioos:station:wmo:42043:1,2013-10-02T05:00:00Z,28.9818,-94.9186,4.0,7.601401187,147.6273713,9.7,'11111222,11111222,11111222' 
TABS,ioos:station:wmo:42043:1,2013-10-02T05:30:00Z,28.9818,-94.9186,4.0,7.687294713,147.5919747,9.53,'11111222,11111222,11111222' 
TABS,ioos:station:wmo:42043:1,2013-10-02T06:00:00Z,28.9818,-94.9186,4.0,7.995311126,137.0276336,10.09,'11111222,11111222,11111222' 
TABS,ioos:station:wmo:42043:1,2013-10-02T06:30:00Z,28.9818,-94.9186,4.0,8.268034833,142.9640841,10.19,'11111222,11111222,11111222' 
TABS,ioos:station:wmo:42043:1,2013-10-02T07:00:00Z,28.9818,-94.9186,4.0,8.143439077,140.6811932,10.08,'11111222,11111222,11111222' 
TABS,ioos:station:wmo:42043:1,2013-10-02T07:30:00Z,28.9818,-94.9186,4.0,7.638272056,146.1021774,9.11,'11111222,11111222,11111222' 
TABS,ioos:station:wmo:42043:1,2013-10-02T08:00:00Z,28.9818,-94.9186,4.0,7.312482479,145.1366511,9.04,'11111222,11111222,11111222' 
TABS,ioos:station:wmo:42043:1,2013-10-02T08:30:00Z,28.9818,-94.9186,4.0,6.961048772,144.8262105,9.16,'11111222,11111222,11111222' 
TABS,ioos:station:wmo:42043:1,2013-10-02T09:00:00Z,28.9818,-94.9186,4.0,6.788409239,147.5744076,8.39,'11111222,11111222,11111222' 
TABS,ioos:station:wmo:42043:1,2013-10-02T09:30:00Z,28.9818,-94.9186,4.0,6.667683256,145.8812274,8.16,'11111222,11111222,11111222' 
TABS,ioos:station:wmo:42043:1,2013-10-02T10:00:00Z,28.9818,-94.9186,4.0,6.508287025,140.6117896,7.94,'11111222,11111222,11111222' 
TABS,ioos:station:wmo:42043:1,2013-10-02T10:30:00Z,28.9818,-94.9186,4.0,6.367558402,140.7362195,8.6,'11111222,11111222,11111222' 
TABS,ioos:station:wmo:42043:1,2013-10-02T11:00:00Z,28.9818,-94.9186,4.0,6.273985974,140.6273648,7.42,'11111222,11111222,11111222' 
TABS,ioos:station:wmo:42043:1,2013-10-02T11:30:00Z,28.9818,-94.9186,4.0,5.653538715,141.1030811,7.14,'11111222,11111222,11111222' 
TABS,ioos:station:wmo:42043:1,2013-10-02T12:00:00Z,28.9818,-94.9186,4.0,5.251104646,138.7835885,6.68,'11111222,11111222,11111222' 
TABS,ioos:station:wmo:42043:1,2013-10-02T12:30:00Z,28.9818,-94.9186,4.0,5.16295458,138.2193134,6.67,'11111222,11111222,11111222' 
TABS,ioos:station:wmo:42043:1,2013-10-02T13:00:00Z,28.9818,-94.9186,4.0,4.504719747,135.8097764,5.88,'11111222,11111222,11111222' 
TABS,ioos:station:wmo:42043:1,2013-10-02T13:30:00Z,28.9818,-94.9186,4.0,4.645600069,138.1414382,5.93,'11111222,11111222,11111222' 
TABS,ioos:station:wmo:42043:1,2013-10-02T14:00:00Z,28.9818,-94.9186,4.0,5.206495943,154.5179999,8.28,'11111222,11111222,11111222' 
TABS,ioos:station:wmo:42043:1,2013-10-02T14:30:00Z,28.9818,-94.9186,4.0,2.653073689,139.5864039,3.31,'11111222,11111222,11111222' 
TABS,ioos:station:wmo:42043:1,2013-10-02T15:00:00Z,28.9818,-94.9186,4.0,3.686760095,130.8207556,4.84,'11111222,11111222,11111222' 
TABS,ioos:station:wmo:42043:1,2013-10-02T15:30:00Z,28.9818,-94.9186,4.0,5.080679088,129.3294088,6.16,'11111222,11111222,11111222' 
TABS,ioos:station:wmo:42043:1,2013-10-02T16:00:00Z,28.9818,-94.9186,4.0,4.974595461,122.1888599,5.91,'11111222,11111222,11111222' 
TABS,ioos:station:wmo:42043:1,2013-10-02T16:30:00Z,28.9818,-94.9186,4.0,4.999249944,96.20137741,6.52,'11111222,11111222,11111222' 
TABS,ioos:station:wmo:42043:1,2013-10-02T17:00:00Z,28.9818,-94.9186,4.0,5.586161473,162.927685,10.89,'11111222,11111222,11111222' 
TABS,ioos:station:wmo:42043:1,2013-10-02T17:30:00Z,28.9818,-94.9186,4.0,4.282242403,139.1668108,5.48,'11111222,11111222,11111222' 
TABS,ioos:station:wmo:42043:1,2013-10-02T18:00:00Z,28.9818,-94.9186,4.0,5.052731934,127.8454797,6.43,'11111222,11111222,11111222' 
TABS,ioos:station:wmo:42043:1,2013-10-02T18:30:00Z,28.9818,-94.9186,4.0,4.469720349,141.5406862,5.84,'11111222,11111222,11111222' 
TABS,ioos:station:wmo:42043:1,2013-10-02T19:00:00Z,28.9818,-94.9186,4.0,4.164156577,144.974456,5.18,'11111222,11111222,11111222' 
TABS,ioos:station:wmo:42043:1,2013-10-02T19:30:00Z,28.9818,-94.9186,4.0,3.136000638,143.1669396,4.2,'11111222,11111222,11111222' 
TABS,ioos:station:wmo:42043:1,2013-10-02T20:00:00Z,28.9818,-94.9186,4.0,2.892490277,129.2479244,3.89,'11111222,11111222,11111222' 
TABS,ioos:station:wmo:42043:1,2013-10-02T20:30:00Z,28.9818,-94.9186,4.0,2.549509757,131.820493,3.32,'11111222,11111222,11111222' 
TABS,ioos:station:wmo:42043:1,2013-10-02T21:00:00Z,28.9818,-94.9186,4.0,2.538700455,122.1253442,3.29,'11111222,11111222,11111222' 
TABS,ioos:station:wmo:42043:1,2013-10-02T21:30:00Z,28.9818,-94.9186,4.0,3.828276375,117.0339387,4.67,'11111222,11111222,11111222' 
TABS,ioos:station:wmo:42043:1,2013-10-02T22:00:00Z,28.9818,-94.9186,4.0,3.42794399,114.4719842,4.27,'11111222,11111222,11111222' 
TABS,ioos:station:wmo:42043:1,2013-10-02T22:30:00Z,28.9818,-94.9186,4.0,4.233131229,137.681097,5.49,'11111222,11111222,11111222' 
TABS,ioos:station:wmo:42043:1,2013-10-02T23:00:00Z,28.9818,-94.9186,4.0,4.351091817,129.0303137,5.23,'11111222,11111222,11111222' 
TABS,ioos:station:wmo:42043:1,2013-10-02T23:30:00Z,28.9818,-94.9186,4.0,3.995459923,135.7101369,4.91,'11111222,11111222,11111222' 
TABS,ioos:station:wmo:42043:1,2013-10-03T00:00:00Z,28.9818,-94.9186,4.0,4.596574812,131.737378,5.54,'11111222,11111222,11111222' 
TABS,ioos:station:wmo:42043:1,2013-10-03T00:30:00Z,28.9818,-94.9186,4.0,5.045334479,123.028972,6.16,'11111222,11111222,11111222' 
TABS,ioos:station:wmo:42043:1,2013-10-03T01:00:00Z,28.9818,-94.9186,4.0,5.664803615,122.4560226,6.97,'11111222,11111222,11111222' 
TABS,ioos:station:wmo:42043:1,2013-10-03T01:30:00Z,28.9818,-94.9186,4.0,4.780167361,127.3496826,5.86,'11111222,11111222,11111222' 
TABS,ioos:station:wmo:42043:1,2013-10-03T02:00:00Z,28.9818,-94.9186,4.0,5.333441666,125.5380156,6.92,'11111222,11111222,11111222' 
TABS,ioos:station:wmo:42043:1,2013-10-03T02:30:00Z,28.9818,-94.9186,4.0,5.945569779,128.855789,7.35,'11111222,11111222,11111222' 
TABS,ioos:station:wmo:42043:1,2013-10-03T03:00:00Z,28.9818,-94.9186,4.0,6.138354828,126.2541739,7.55,'11111222,11111222,11111222' 
TABS,ioos:station:wmo:42043:1,2013-10-03T03:30:00Z,28.9818,-94.9186,4.0,6.356264626,127.3930541,7.75,'11111222,11111222,11111222' 
TABS,ioos:station:wmo:42043:1,2013-10-03T04:00:00Z,28.9818,-94.9186,4.0,6.229237514,130.3123015,7.95,'11111222,11111222,11111222' 
TABS,ioos:station:wmo:42043:1,2013-10-03T04:30:00Z,28.9818,-94.9186,4.0,5.352803004,134.924628,6.61,'11111222,11111222,11111222' 
TABS,ioos:station:wmo:42043:1,2013-10-03T05:00:00Z,28.9818,-94.9186,4.0,5.524137942,139.3315115,7.07,'11111222,11111222,11111222' 
TABS,ioos:station:wmo:42043:1,2013-10-03T05:30:00Z,28.9818,-94.9186,4.0,5.316135815,139.9601418,6.72,'11111222,11111222,11111222' 
TABS,ioos:station:wmo:42043:1,2013-10-03T06:00:00Z,28.9818,-94.9186,4.0,5.164261806,142.5534678,6.62,'11111222,11111222,11111222' 
TABS,ioos:station:wmo:42043:1,2013-10-03T06:30:00Z,28.9818,-94.9186,4.0,4.796926099,149.4257292,6.11,'11111222,11111222,11111222' 
TABS,ioos:station:wmo:42043:1,2013-10-03T07:00:00Z,28.9818,-94.9186,4.0,5.505233873,149.4292006,6.78,'11111222,11111222,11111222' 
TABS,ioos:station:wmo:42043:1,2013-10-03T07:30:00Z,28.9818,-94.9186,4.0,5.466424791,150.7624266,6.95,'11111222,11111222,11111222' 
TABS,ioos:station:wmo:42043:1,2013-10-03T08:00:00Z,28.9818,-94.9186,4.0,5.049683158,152.5218164,6.33,'11111222,11111222,11111222' 
TABS,ioos:station:wmo:42043:1,2013-10-03T08:30:00Z,28.9818,-94.9186,4.0,5.244206327,150.4044646,6.52,'11111222,11111222,11111222' 
TABS,ioos:station:wmo:42043:1,2013-10-03T09:00:00Z,28.9818,-94.9186,4.0,5.064355833,155.0038797,6.51,'11111222,11111222,11111222' 
TABS,ioos:station:wmo:42043:1,2013-10-03T09:30:00Z,28.9818,-94.9186,4.0,4.972293234,165.3211976,6.54,'11111222,11111222,11111222' 
TABS,ioos:station:wmo:42043:1,2013-10-03T10:00:00Z,28.9818,-94.9186,4.0,4.748578735,164.2371631,5.76,'11111222,11111222,11111222' 
TABS,ioos:station:wmo:42043:1,2013-10-03T10:30:00Z,28.9818,-94.9186,4.0,4.455704209,161.2806587,5.88,'11111222,11111222,11111222' 
TABS,ioos:station:wmo:42043:1,2013-10-03T11:00:00Z,28.9818,-94.9186,4.0,4.167601229,168.231949,5.25,'11111222,11111222,11111222' 
TABS,ioos:station:wmo:42043:1,2013-10-03T11:30:00Z,28.9818,-94.9186,4.0,4.58105883,154.9455965,5.85,'11111222,11111222,11111222' 
TABS,ioos:station:wmo:42043:1,2013-10-03T12:00:00Z,28.9818,-94.9186,4.0,4.548241418,153.7732449,5.81,'11111222,11111222,11111222' 
TABS,ioos:station:wmo:42043:1,2013-10-03T12:30:00Z,28.9818,-94.9186,4.0,3.870917204,156.8794159,5.54,'11111222,11111222,11111222' 
TABS,ioos:station:wmo:42043:1,2013-10-03T13:00:00Z,28.9818,-94.9186,4.0,4.793172227,141.8632145,5.85,'11111222,11111222,11111222' 
TABS,ioos:station:wmo:42043:1,2013-10-03T13:30:00Z,28.9818,-94.9186,4.0,4.228001892,176.4746035,5.36,'11111222,11111222,11111222' 
TABS,ioos:station:wmo:42043:1,2013-10-03T14:00:00Z,28.9818,-94.9186,4.0,3.946403426,163.8155397,5.12,'11111222,11111222,11111222' 
TABS,ioos:station:wmo:42043:1,2013-10-03T14:30:00Z,28.9818,-94.9186,4.0,3.691679834,165.2487825,4.92,'11111222,11111222,11111222' 
TABS,ioos:station:wmo:42043:1,2013-10-03T15:00:00Z,28.9818,-94.9186,4.0,3.443617284,171.9877771,4.79,'11111222,11111222,11111222' 
TABS,ioos:station:wmo:42043:1,2013-10-03T15:30:00Z,28.9818,-94.9186,4.0,3.728391074,155.7725218,4.49,'11111222,11111222,11111222' 
TABS,ioos:station:wmo:42043:1,2013-10-03T16:00:00Z,28.9818,-94.9186,4.0,3.548309457,171.5732611,4.46,'11111222,11111222,11111222' 
TABS,ioos:station:wmo:42043:1,2013-10-03T16:30:00Z,28.9818,-94.9186,4.0,3.061845849,164.466119,4.36,'11111222,11111222,11111222' 
TABS,ioos:station:wmo:42043:1,2013-10-03T17:00:00Z,28.9818,-94.9186,4.0,3.890771132,202.6766611,11.01,'11111222,11111222,11111222' 
TABS,ioos:station:wmo:42043:1,2013-10-03T17:30:00Z,28.9818,-94.9186,4.0,2.37413142,146.5110234,4.23,'11111222,11111222,11111222' 
TABS,ioos:station:wmo:42043:1,2013-10-03T18:00:00Z,28.9818,-94.9186,4.0,2.686279956,170.572975,4.01,'11111222,11111222,11111222' 
TABS,ioos:station:wmo:42043:1,2013-10-03T18:30:00Z,28.9818,-94.9186,4.0,4.14584129,140.088564,5.39,'11111222,11111222,11111222' 
TABS,ioos:station:wmo:42043:1,2013-10-03T19:00:00Z,28.9818,-94.9186,4.0,4.053603335,144.7419442,5.0,'11111222,11111222,11111222' 
TABS,ioos:station:wmo:42043:1,2013-10-03T19:30:00Z,28.9818,-94.9186,4.0,3.905124838,140.1947324,5.04,'11111222,11111222,11111222' 
TABS,ioos:station:wmo:42043:1,2013-10-03T20:00:00Z,28.9818,-94.9186,4.0,3.78737376,144.6736485,4.92,'11111222,11111222,11111222' 
TABS,ioos:station:wmo:42043:1,2013-10-03T20:30:00Z,28.9818,-94.9186,4.0,3.253459697,140.4878599,4.57,'11111222,11111222,11111222' 
TABS,ioos:station:wmo:42043:1,2013-10-03T21:00:00Z,28.9818,-94.9186,4.0,3.922499203,145.1758027,5.21,'11111222,11111222,11111222' 
TABS,ioos:station:wmo:42043:1,2013-10-03T21:30:00Z,28.9818,-94.9186,4.0,3.708004854,143.2231104,4.67,'11111222,11111222,11111222' 
TABS,ioos:station:wmo:42043:1,2013-10-03T22:00:00Z,28.9818,-94.9186,4.0,3.840377586,136.1608422,4.78,'11111222,11111222,11111222' 
TABS,ioos:station:wmo:42043:1,2013-10-03T22:30:00Z,28.9818,-94.9186,4.0,4.056266757,129.4984442,5.08,'11111222,11111222,11111222' 
TABS,ioos:station:wmo:42043:1,2013-10-03T23:00:00Z,28.9818,-94.9186,4.0,4.974032569,143.3377406,6.2,'11111222,11111222,11111222' 
TABS,ioos:station:wmo:42043:1,2013-10-03T23:30:00Z,28.9818,-94.9186,4.0,4.989639266,155.4897895,6.34,'11111222,11111222,11111222' 
TABS,ioos:station:wmo:42043:1,2013-10-04T00:00:00Z,28.9818,-94.9186,4.0,4.808918797,150.6100745,6.19,'11111222,11111222,11111222' 
TABS,ioos:station:wmo:42043:1,2013-10-04T00:30:00Z,28.9818,-94.9186,4.0,4.934136196,145.9881585,6.17,'11111222,11111222,11111222' 
TABS,ioos:station:wmo:42043:1,2013-10-04T01:00:00Z,28.9818,-94.9186,4.0,4.796602965,145.0180578,6.12,'11111222,11111222,11111222' 
TABS,ioos:station:wmo:42043:1,2013-10-04T01:30:00Z,28.9818,-94.9186,4.0,5.258944761,145.6152137,6.53,'11111222,11111222,11111222' 
TABS,ioos:station:wmo:42043:1,2013-10-04T02:00:00Z,28.9818,-94.9186,4.0,5.141254711,150.3936268,6.66,'11111222,11111222,11111222' 
TABS,ioos:station:wmo:42043:1,2013-10-04T02:30:00Z,28.9818,-94.9186,4.0,5.492804384,144.1109644,7.02,'11111222,11111222,11111222' 
TABS,ioos:station:wmo:42043:1,2013-10-04T03:00:00Z,28.9818,-94.9186,4.0,5.376430042,147.6108282,6.74,'11111222,11111222,11111222' 
TABS,ioos:station:wmo:42043:1,2013-10-04T03:30:00Z,28.9818,-94.9186,4.0,5.480912333,147.0640683,6.82,'11111222,11111222,11111222' 
TABS,ioos:station:wmo:42043:1,2013-10-04T04:00:00Z,28.9818,-94.9186,4.0,5.57929207,149.7586281,7.5,'11111222,11111222,11111222' 
TABS,ioos:station:wmo:42043:1,2013-10-04T04:30:00Z,28.9818,-94.9186,4.0,5.914879542,142.142307,7.59,'11111222,11111222,11111222' 
TABS,ioos:station:wmo:42043:1,2013-10-04T05:00:00Z,28.9818,-94.9186,4.0,5.489417091,151.8479732,7.12,'11111222,11111222,11111222' 
TABS,ioos:station:wmo:42043:1,2013-10-04T05:30:00Z,28.9818,-94.9186,4.0,5.888853878,147.2007559,7.53,'11111222,11111222,11111222' 
TABS,ioos:station:wmo:42043:1,2013-10-04T06:00:00Z,28.9818,-94.9186,4.0,5.710770526,145.9206507,8.13,'11111222,11111222,11111222' 
TABS,ioos:station:wmo:42043:1,2013-10-04T06:30:00Z,28.9818,-94.9186,4.0,5.123377792,147.2717801,6.43,'11111222,11111222,11111222' 
TABS,ioos:station:wmo:42043:1,2013-10-04T07:00:00Z,28.9818,-94.9186,4.0,5.552368864,143.7908383,6.75,'11111222,11111222,11111222' 
TABS,ioos:station:wmo:42043:1,2013-10-04T07:30:00Z,28.9818,-94.9186,4.0,5.200740332,145.5768775,6.57,'11111222,11111222,11111222' 
TABS,ioos:station:wmo:42043:1,2013-10-04T08:00:00Z,28.9818,-94.9186,4.0,4.899765301,148.7758199,6.39,'11111222,11111222,11111222' 
TABS,ioos:station:wmo:42043:1,2013-10-04T08:30:00Z,28.9818,-94.9186,4.0,4.744101601,156.785816,5.73,'11111222,11111222,11111222' 
TABS,ioos:station:wmo:42043:1,2013-10-04T09:00:00Z,28.9818,-94.9186,4.0,4.126257384,149.0841536,5.09,'11111222,11111222,11111222' 
TABS,ioos:station:wmo:42043:1,2013-10-04T09:30:00Z,28.9818,-94.9186,4.0,4.018855558,155.6035086,5.09,'11111222,11111222,11111222' 
TABS,ioos:station:wmo:42043:1,2013-10-04T10:00:00Z,28.9818,-94.9186,4.0,3.938641898,157.9287189,4.89,'11111222,11111222,11111222' 
TABS,ioos:station:wmo:42043:1,2013-10-04T10:30:00Z,28.9818,-94.9186,4.0,3.342289634,166.5045087,4.71,'11111222,11111222,11111222' 
TABS,ioos:station:wmo:42043:1,2013-10-04T11:00:00Z,28.9818,-94.9186,4.0,2.945674795,168.842889,3.92,'11111222,11111222,11111222' 
TABS,ioos:station:wmo:42043:1,2013-10-04T11:30:00Z,28.9818,-94.9186,4.0,2.540019685,180.2257827,3.42,'11111222,11111222,11111222' 
TABS,ioos:station:wmo:42043:1,2013-10-04T12:00:00Z,28.9818,-94.9186,4.0,3.250384593,179.1188085,3.24,'11111222,11111222,11111222' 
TABS,ioos:station:wmo:42043:1,2013-10-04T12:30:00Z,28.9818,-94.9186,4.0,0.0,0.0,0.0,'11111222,11111222,11111222' 
TABS,ioos:station:wmo:42043:1,2013-10-04T13:00:00Z,28.9818,-94.9186,4.0,1.563873396,175.9668088,2.52,'11111222,11111222,11111222' 
TABS,ioos:station:wmo:42043:1,2013-10-04T13:30:00Z,28.9818,-94.9186,4.0,2.00531793,155.8637153,2.65,'11111222,11111222,11111222' 
TABS,ioos:station:wmo:42043:1,2013-10-04T14:00:00Z,28.9818,-94.9186,4.0,2.03039405,142.0015669,2.82,'11111222,11111222,11111222' 
TABS,ioos:station:wmo:42043:1,2013-10-04T14:30:00Z,28.9818,-94.9186,4.0,1.768671818,133.1674805,2.39,'11111222,11111222,11111222' 
TABS,ioos:station:wmo:42043:1,2013-10-04T15:00:00Z,28.9818,-94.9186,4.0,1.725340546,145.3891492,2.47,'11111222,11111222,11111222' 
TABS,ioos:station:wmo:42043:1,2013-10-04T15:30:00Z,28.9818,-94.9186,4.0,2.085809195,139.6671631,2.74,'11111222,11111222,11111222' 
TABS,ioos:station:wmo:42043:1,2013-10-04T16:00:00Z,28.9818,-94.9186,4.0,1.883454273,124.6185348,2.67,'11111222,11111222,11111222' 
TABS,ioos:station:wmo:42043:1,2013-10-04T16:30:00Z,28.9818,-94.9186,4.0,1.389460327,139.0859229,2.11,'11111222,11111222,11111222' 
TABS,ioos:station:wmo:42043:1,2013-10-04T17:00:00Z,28.9818,-94.9186,4.0,1.821318204,121.0720063,2.47,'11111222,11111222,11111222' 
TABS,ioos:station:wmo:42043:1,2013-10-04T17:30:00Z,28.9818,-94.9186,4.0,2.016977937,116.1842916,2.86,'11111222,11111222,11111222' 
TABS,ioos:station:wmo:42043:1,2013-10-04T18:00:00Z,28.9818,-94.9186,4.0,1.778819833,105.9900233,2.53,'11111222,11111222,11111222' 
TABS,ioos:station:wmo:42043:1,2013-10-04T18:30:00Z,28.9818,-94.9186,4.0,1.939922679,120.0016693,3.04,'11111222,11111222,11111222' 